TimeCST,TemperatureF,Dew PointF,Humidity,Sea Level PressureIn,VisibilityMPH,Wind Direction,Wind SpeedMPH,Gust SpeedMPH,PrecipitationIn,Events,Conditions,WindDirDegrees,DateUTC
12:15 AM,52.5,19.9,28,29.98,10.0,West,15.0,-,N/A,,Clear,260,2014-01-13 06:15:00
12:35 AM,53.4,19.8,27,30.02,10.0,NW,9.2,23.0,N/A,,Clear,310,2014-01-13 06:35:00
12:55 AM,53.8,19.9,27,30.03,10.0,NNW,11.5,-,N/A,,Clear,340,2014-01-13 06:55:00
1:15 AM,50.7,19.8,30,30.04,10.0,NNW,8.1,-,N/A,,Clear,340,2014-01-13 07:15:00
1:35 AM,48.2,19.4,32,30.05,10.0,NNW,9.2,-,N/A,,Clear,330,2014-01-13 07:35:00
1:55 AM,46.6,19.4,34,30.06,10.0,WNW,5.8,-,N/A,,Clear,300,2014-01-13 07:55:00
2:15 AM,48.0,19.6,32,30.07,10.0,NNW,8.1,-,N/A,,Clear,340,2014-01-13 08:15:00
2:35 AM,47.7,19.4,33,30.07,10.0,NNW,8.1,-,N/A,,Clear,340,2014-01-13 08:35:00
2:55 AM,48.2,19.2,32,30.09,10.0,NNW,13.8,-,N/A,,Clear,330,2014-01-13 08:55:00
3:15 AM,49.6,18.5,29,30.10,10.0,NNW,11.5,19.6,N/A,,Clear,330,2014-01-13 09:15:00
3:35 AM,49.5,18.0,29,30.11,10.0,NNW,13.8,-,N/A,,Clear,340,2014-01-13 09:35:00
3:55 AM,49.5,16.7,27,30.12,10.0,North,17.3,23.0,N/A,,Clear,350,2014-01-13 09:55:00
4:15 AM,49.5,15.3,26,30.13,10.0,North,16.1,20.7,N/A,,Clear,350,2014-01-13 10:15:00
4:35 AM,49.3,13.6,24,30.14,10.0,North,17.3,23.0,N/A,,Clear,360,2014-01-13 10:35:00
4:55 AM,49.1,12.4,23,30.15,10.0,North,18.4,24.2,N/A,,Clear,360,2014-01-13 10:55:00
5:15 AM,47.7,10.6,22,30.17,10.0,North,12.7,-,N/A,,Clear,10,2014-01-13 11:15:00
5:35 AM,45.7,10.0,24,30.18,10.0,NNE,8.1,-,N/A,,Clear,20,2014-01-13 11:35:00
5:55 AM,43.7,9.7,25,30.18,10.0,North,4.6,-,N/A,,Clear,10,2014-01-13 11:55:00
6:15 AM,41.2,9.5,27,30.19,10.0,NW,3.5,-,N/A,,Clear,310,2014-01-13 12:15:00
6:35 AM,38.5,10.2,31,30.20,10.0,NW,5.8,-,N/A,,Clear,310,2014-01-13 12:35:00
6:55 AM,36.3,10.4,34,30.22,10.0,WSW,9.2,-,N/A,,Clear,250,2014-01-13 12:55:00
7:15 AM,34.9,10.9,37,30.23,10.0,West,9.2,-,N/A,,Clear,260,2014-01-13 13:15:00
7:35 AM,35.6,11.5,37,30.22,10.0,WSW,9.2,-,N/A,,Clear,240,2014-01-13 13:35:00
7:55 AM,34.0,11.7,40,30.23,10.0,WSW,5.8,-,N/A,,Clear,240,2014-01-13 13:55:00
8:15 AM,32.2,12.6,44,30.24,10.0,SW,6.9,-,N/A,,Clear,220,2014-01-13 14:15:00
8:35 AM,33.3,13.8,45,30.26,10.0,WSW,4.6,-,N/A,,Clear,250,2014-01-13 14:35:00
8:55 AM,35.8,14.5,42,30.27,7.0,SSW,3.5,-,N/A,,Clear,210,2014-01-13 14:55:00
9:15 AM,39.4,15.1,37,30.28,7.0,Calm,Calm,-,N/A,,Clear,0,2014-01-13 15:15:00
9:35 AM,43.9,15.6,32,30.29,10.0,SW,4.6,-,N/A,,Clear,230,2014-01-13 15:35:00
9:55 AM,47.5,14.9,27,30.30,10.0,SW,5.8,-,N/A,,Clear,220,2014-01-13 15:55:00
10:15 AM,48.7,14.7,26,30.30,10.0,WSW,6.9,-,N/A,,Clear,250,2014-01-13 16:15:00
10:35 AM,50.0,10.6,21,30.30,10.0,West,6.9,-,N/A,,Clear,260,2014-01-13 16:35:00
10:55 AM,50.2,10.4,20,30.29,10.0,West,4.6,-,N/A,,Clear,260,2014-01-13 16:55:00
11:15 AM,51.3,10.4,19,30.29,10.0,WSW,5.8,-,N/A,,Clear,250,2014-01-13 17:15:00
11:35 AM,52.7,10.9,19,30.28,10.0,WSW,5.8,-,N/A,,Clear,250,2014-01-13 17:35:00
11:55 AM,54.0,11.1,18,30.27,10.0,West,4.6,-,N/A,,Clear,280,2014-01-13 17:55:00
12:15 PM,54.7,10.6,17,30.26,10.0,West,4.6,-,N/A,,Clear,280,2014-01-13 18:15:00
12:35 PM,56.1,11.5,17,30.25,10.0,NW,5.8,-,N/A,,Clear,320,2014-01-13 18:35:00
12:55 PM,56.7,11.7,17,30.24,10.0,WNW,5.8,-,N/A,,Clear,300,2014-01-13 18:55:00
1:15 PM,57.4,12.4,17,30.22,10.0,Calm,Calm,-,N/A,,Clear,0,2014-01-13 19:15:00
1:35 PM,58.5,12.2,16,30.20,10.0,NW,5.8,-,N/A,,Clear,320,2014-01-13 19:35:00
1:55 PM,59.9,12.2,15,30.18,10.0,Calm,Calm,-,N/A,,Clear,0,2014-01-13 19:55:00
2:15 PM,60.4,12.0,15,30.17,10.0,NW,3.5,-,N/A,,Clear,320,2014-01-13 20:15:00
2:35 PM,60.8,12.0,15,30.16,10.0,North,3.5,-,N/A,,Clear,10,2014-01-13 20:35:00
2:55 PM,62.6,12.7,14,30.15,10.0,South,3.5,-,N/A,,Clear,190,2014-01-13 20:55:00
3:15 PM,63.5,13.5,14,30.15,10.0,SE,4.6,-,N/A,,Clear,130,2014-01-13 21:15:00
3:35 PM,63.7,13.1,14,30.13,10.0,South,3.5,-,N/A,,Clear,170,2014-01-13 21:35:00
3:55 PM,65.5,9.7,11,30.13,10.0,WSW,8.1,-,N/A,,Clear,250,2014-01-13 21:55:00
4:15 PM,65.5,10.4,12,30.12,10.0,WNW,11.5,17.3,N/A,,Clear,290,2014-01-13 22:15:00
4:35 PM,66.0,11.3,12,30.12,10.0,WSW,16.1,-,N/A,,Clear,250,2014-01-13 22:35:00
4:55 PM,65.7,10.9,12,30.12,10.0,West,17.3,20.7,N/A,,Clear,260,2014-01-13 22:55:00
5:15 PM,64.9,10.4,12,30.12,10.0,West,12.7,-,N/A,,Clear,260,2014-01-13 23:15:00
5:35 PM,63.9,10.4,12,30.11,10.0,West,11.5,-,N/A,,Clear,260,2014-01-13 23:35:00
5:55 PM,62.1,10.0,13,30.10,10.0,WSW,9.2,-,N/A,,Clear,250,2014-01-13 23:55:00
6:15 PM,58.6,9.3,14,30.10,10.0,West,10.4,-,N/A,,Clear,260,2014-01-14 00:15:00
6:35 PM,55.8,8.6,15,30.11,10.0,WSW,9.2,-,N/A,,Clear,250,2014-01-14 00:35:00
6:55 PM,52.3,8.1,17,30.11,10.0,WSW,9.2,-,N/A,,Clear,250,2014-01-14 00:55:00
7:15 PM,52.0,9.1,18,30.12,10.0,SW,10.4,-,N/A,,Clear,230,2014-01-14 01:15:00
7:35 PM,50.5,8.8,19,30.12,10.0,SSW,8.1,-,N/A,,Clear,210,2014-01-14 01:35:00
7:55 PM,48.2,10.2,22,30.13,10.0,SW,8.1,-,N/A,,Clear,220,2014-01-14 01:55:00
8:15 PM,46.4,9.5,22,30.13,10.0,SSW,11.5,16.1,N/A,,Clear,200,2014-01-14 02:15:00
8:35 PM,47.3,9.5,22,30.13,10.0,SSW,10.4,-,N/A,,Clear,210,2014-01-14 02:35:00
8:55 PM,45.5,10.2,24,30.13,10.0,SW,9.2,-,N/A,,Clear,230,2014-01-14 02:55:00
9:15 PM,46.8,9.3,22,30.13,10.0,SW,9.2,-,N/A,,Clear,220,2014-01-14 03:15:00
9:35 PM,43.0,10.0,26,30.14,10.0,SW,9.2,-,N/A,,Clear,220,2014-01-14 03:35:00
9:55 PM,42.4,10.2,27,30.14,10.0,WSW,10.4,-,N/A,,Clear,240,2014-01-14 03:55:00
10:15 PM,43.7,9.5,25,30.13,10.0,WSW,9.2,-,N/A,,Clear,240,2014-01-14 04:15:00
10:35 PM,44.1,9.3,24,30.14,10.0,WSW,9.2,-,N/A,,Clear,250,2014-01-14 04:35:00
10:55 PM,41.9,9.3,26,30.15,10.0,WSW,8.1,-,N/A,,Clear,240,2014-01-14 04:55:00
11:15 PM,41.4,9.5,27,30.15,10.0,West,11.5,-,N/A,,Clear,260,2014-01-14 05:15:00
11:35 PM,45.9,9.5,23,30.15,10.0,West,13.8,-,N/A,,Clear,260,2014-01-14 05:35:00
11:55 PM,45.5,9.3,23,30.14,10.0,West,12.7,-,N/A,,Clear,260,2014-01-14 05:55:00